DW9615 Home Hill AU current weather conditions

sailwx.info

Wind from 094

Air temperature 22.2° C
Dewpoint 20.1° C

Last reported at 2014-Oct-30 11:36 UTC.
Time now 2014-Oct-30 13:04 UTC

Location: S 19°40' E 147°25'.
View on Google Maps.

See reports from other nearby stations

  
Tides and Currents Weather Stations Pressure Air Temp Water Temp Dewpoint Dewpoint Depression Visibility Wind Speed Wind Dir Waves Ship Positions
date/time (UTC)wind fromknots sea level pressurealtimeterstation pressurevisibilityair tempwater tempwave heightnotes
2014-Oct-30 11:36 094 22.2
2014-Oct-30 11:21 095 22.8
2014-Oct-30 11:06 095 22.8
2014-Oct-30 10:51 076 22.8
2014-Oct-30 10:36 351 22.8
2014-Oct-30 10:21 079 22.8
2014-Oct-30 10:06 076 22.8
2014-Oct-30 09:51 088 23.3
2014-Oct-30 09:36 055 23.3
2014-Oct-30 09:21 079 23.9
2014-Oct-30 09:06 073 23.9
2014-Oct-30 08:52 072 0 gusting 2 24.4
2014-Oct-30 08:36 064 1 gusting 6 24.4
2014-Oct-30 08:21 069 1 gusting 6 25.0
2014-Oct-30 08:06 073 2 gusting 6 25.0
2014-Oct-30 07:51 043 2 gusting 6 25.6
2014-Oct-30 07:36 081 0 gusting 10 26.1
2014-Oct-30 07:21 043 2 gusting 8 26.7
2014-Oct-30 07:06 062 2 gusting 6 27.8
2014-Oct-30 06:51 068 1 gusting 7 27.8
2014-Oct-30 06:36 336 28.3
2014-Oct-30 06:21 081 3 gusting 7 28.3
2014-Oct-30 06:06 100 2 gusting 11 28.9
2014-Oct-30 05:51 086 5 gusting 9 28.9
2014-Oct-30 05:36 351 3 gusting 9 29.4
2014-Oct-30 05:21 069 29.4
2014-Oct-30 05:06 322 2 gusting 6 29.4
2014-Oct-30 04:51 326 3 gusting 8 29.4
2014-Oct-30 04:36 003 3 gusting 10 29.4
2014-Oct-30 04:21 021 2 gusting 10 30.0
2014-Oct-30 04:06 015 1 gusting 10 29.4
2014-Oct-30 03:51 035 1 gusting 10 29.4
2014-Oct-30 03:37 101 0 gusting 8 30.0
2014-Oct-30 03:21 307 4 gusting 13 29.4
2014-Oct-30 03:05 041 5 gusting 11 29.4
2014-Oct-30 02:50 100 3 gusting 10 29.4
2014-Oct-30 02:35 093 3 gusting 13 29.4
2014-Oct-30 02:20 045 3 gusting 12 28.9
2014-Oct-30 02:05 076 5 gusting 11 29.4
2014-Oct-30 01:50 084 2 gusting 5 30.0
2014-Oct-30 01:35 079 1 gusting 6 30.0
2014-Oct-30 01:20 353 2 gusting 9 30.0
2014-Oct-30 01:05 353 2 gusting 6 30.0
2014-Oct-30 00:50 084 3 gusting 8 30.0
2014-Oct-30 00:36 080 2 gusting 7 29.4
2014-Oct-30 00:20 050 1 gusting 9 29.4
2014-Oct-30 00:05 101 4 gusting 9 28.9
2014-Oct-29 23:50 079 2 gusting 7 28.9
2014-Oct-29 23:35 001 2 gusting 10 28.3
2014-Oct-29 23:20 346 2 gusting 11 27.2
2014-Oct-29 23:05 080 6 gusting 12 27.8
2014-Oct-29 22:50 067 4 gusting 8 27.8
2014-Oct-29 22:35 057 3 gusting 8 27.2
2014-Oct-29 22:20 105 4 gusting 7 26.7
2014-Oct-29 22:05 093 4 gusting 7 26.1
2014-Oct-29 21:50 084 4 gusting 6 26.1
2014-Oct-29 21:35 108 1 gusting 5 25.6
2014-Oct-29 21:20 132 0 gusting 4 24.4
2014-Oct-29 21:05 156 0 gusting 3 23.9
2014-Oct-29 20:50 173 0 gusting 3 23.3
2014-Oct-29 20:34 167 1 gusting 3 22.2
2014-Oct-29 20:19 182 1 gusting 2 21.7
2014-Oct-29 20:04 192 1 gusting 3 21.1
2014-Oct-29 19:49 203 20.6
2014-Oct-29 19:34 158 20.6
2014-Oct-29 19:19 188 21.1
2014-Oct-29 19:04 164 20.6
2014-Oct-29 18:49 193 20.6
2014-Oct-29 18:34 160 20.6
2014-Oct-29 18:19 160 0 gusting 2 20.6
2014-Oct-29 18:04 188 3 gusting 6 20.6
2014-Oct-29 17:49 048 20.6
2014-Oct-29 17:34 048 20.6
2014-Oct-29 17:19 048 21.1
2014-Oct-29 17:04 043 21.1
2014-Oct-29 16:49 043 21.1
2014-Oct-29 16:34 043 21.1
2014-Oct-29 16:19 056 21.1
2014-Oct-29 16:04 050 21.1
2014-Oct-29 15:49 074 21.1
2014-Oct-29 15:34 073 21.1
2014-Oct-29 15:19 074 21.7
2014-Oct-29 15:04 055 21.7
2014-Oct-29 14:49 053 21.7
2014-Oct-29 14:34 031 21.7
2014-Oct-29 14:19 063 21.1
2014-Oct-29 14:04 063 20.6
2014-Oct-29 13:49 102 20.6
2014-Oct-29 13:34 102 20.6
2014-Oct-29 13:19 102 20.6
2014-Oct-29 13:04 101 21.1
2014-Oct-29 12:49 101 21.1
2014-Oct-29 12:34 095 21.1
2014-Oct-29 12:19 080 21.1
2014-Oct-29 12:04 343 21.1
2014-Oct-29 11:49 343 21.1
2014-Oct-29 11:35 343 22.2
2014-Oct-29 11:19 343 22.2
2014-Oct-29 11:04 012 22.2
2014-Oct-29 10:49 349 22.2
2014-Oct-29 10:34 055 22.8
2014-Oct-29 10:18 087 22.8
2014-Oct-29 10:03 052 22.8
2014-Oct-29 09:48 050 23.3
2014-Oct-29 09:33 021 23.3
2014-Oct-29 09:18 360 23.9
2014-Oct-29 09:03 076 23.9
2014-Oct-29 08:48 028 24.4
2014-Oct-29 08:33 315 24.4
2014-Oct-29 08:18 062 25.0
2014-Oct-29 08:03 056 0 gusting 5 25.6
2014-Oct-29 07:48 036 26.1
2014-Oct-29 07:33 042 1 gusting 7 26.7
2014-Oct-29 07:18 055 1 gusting 7 27.8
2014-Oct-29 07:03 045 2 gusting 8 28.3
2014-Oct-29 06:48 029 0 gusting 8 28.9
2014-Oct-29 06:33 049 2 gusting 8 28.9
2014-Oct-29 06:18 318 2 gusting 7 28.9
2014-Oct-29 06:03 042 1 gusting 7 29.4
2014-Oct-29 05:48 348 2 gusting 10 29.4
2014-Oct-29 05:33 039 3 gusting 8 29.4
2014-Oct-29 05:18 356 1 gusting 12 29.4
2014-Oct-29 05:03 010 6 gusting 13 30.0
2014-Oct-29 04:48 334 0 gusting 6 30.0
2014-Oct-29 04:33 091 0 gusting 9 30.0
2014-Oct-29 04:18 047 3 gusting 9 29.4
2014-Oct-29 04:03 091 2 gusting 10 30.0
2014-Oct-29 03:48 015 5 gusting 11 30.0
2014-Oct-29 03:33 007 3 gusting 7 30.0
2014-Oct-29 03:18 033 2 gusting 9 30.0
2014-Oct-29 03:03 297 2 gusting 8 30.6
2014-Oct-29 02:48 048 0 gusting 12 30.6
2014-Oct-29 02:33 337 3 gusting 8 30.6
2014-Oct-29 02:18 010 6 gusting 10 30.0
2014-Oct-29 02:03 066 2 gusting 8 30.0
2014-Oct-29 01:48 087 1 gusting 10 30.0
2014-Oct-29 01:33 027 3 gusting 7 30.0
2014-Oct-29 01:18 088 1 gusting 9 30.0
2014-Oct-29 01:03 019 0 gusting 6 30.0
2014-Oct-29 00:48 057 1 gusting 6 30.6
2014-Oct-29 00:33 053 0 gusting 3 30.0
2014-Oct-29 00:18 008 29.4
2014-Oct-29 00:03 307 2 gusting 6 29.4
2014-Oct-28 23:48 327 1 gusting 6 28.9
2014-Oct-28 23:33 346 2 gusting 5 28.3
2014-Oct-28 23:18 346 28.3
2014-Oct-28 23:03 061 1 gusting 5 27.8
2014-Oct-28 22:47 043 2 gusting 5 27.2
2014-Oct-28 22:32 069 1 gusting 5 26.7
2014-Oct-28 22:17 073 1 gusting 4 26.1
2014-Oct-28 22:02 057 26.1
2014-Oct-28 21:47 192 25.6
2014-Oct-28 21:32 112 25.0
2014-Oct-28 21:17 162 23.9
2014-Oct-28 21:02 195 22.2
2014-Oct-28 20:47 195 21.1
2014-Oct-28 20:32 174 20.6
2014-Oct-28 20:17 156 0 gusting 1 20.0
2014-Oct-28 20:02 152 20.0
2014-Oct-28 19:47 102 19.4
2014-Oct-28 19:32 102 19.4
2014-Oct-28 19:17 101 20.0
2014-Oct-28 19:02 105 19.4
2014-Oct-28 18:47 076 19.4
2014-Oct-28 18:32 133 18.9
2014-Oct-28 18:17 073 18.3
2014-Oct-28 18:02 072 18.3
2014-Oct-28 17:47 072 18.3
2014-Oct-28 17:32 070 18.3
2014-Oct-28 17:17 070 18.9
2014-Oct-28 17:02 069 18.9
2014-Oct-28 16:47 070 19.4
2014-Oct-28 16:32 070 19.4
2014-Oct-28 16:16 070 18.9
2014-Oct-28 16:01 069 19.4
2014-Oct-28 15:46 069 18.9
2014-Oct-28 15:31 070 19.4
2014-Oct-28 15:16 070 20.0
2014-Oct-28 15:01 070 20.0
2014-Oct-28 14:46 069 20.0
2014-Oct-28 14:31 069 20.6
2014-Oct-28 14:16 073 20.6
2014-Oct-28 14:01 075 20.0
2014-Oct-28 13:46 076 20.6
2014-Oct-28 13:31 039 20.6
2014-Oct-28 13:16 024 20.6
2014-Oct-28 13:01 024 20.6